Annette Island, AK

11:10 AM AKDT on March 27, 2017 (GMT -0800)
Annette Island

Weather History for PANT - January, 2013

Change the Weather History Date:

Saturday, January 12, 2013

  Actual Average Record
Temperature  
Mean Temperature 36 °F 37 °F  
Max Temperature 40 °F 41 °F 59 °F (1986)
Min Temperature 31 °F 32 °F 4 °F (2005)
Degree Days  
Heating Degree Days 29 28  
Month to date heating degree days 320 336  
Since 1 July heating degree days 3363 3247  
Cooling Degree Days 0    
Month to date cooling degree days 0  
Year to date cooling degree days 0  
Moisture  
Dew Point 31 °F    
Average Humidity 0    
Maximum Humidity 0    
Minimum Humidity 0    
Precipitation  
Precipitation 0.00 in 0.35 in 3.12 in (2009)
Month to date precipitation 3.57 4.18  
Year to date precipitation 3.57 4.18  
Snow  
Snow 0.00 in 0.20 in 5.20 in (1952)
Month to date snowfall T 3.1  
Since 1 July snowfall 11.4 14.8  
Snow Depth 0.00 in    
Sea Level Pressure  
Sea Level Pressure 30.40 in    
Wind  
Wind Speed 0 mph (NE)    
Max Wind Speed 8 mph    
Max Gust Speed 10 mph    
Visibility 10 miles    
Events      
T = Trace of Precipitation, MM = Missing Value Source: NWS Daily Summary

Daily Weather History Graph

Daily Weather History Graph

Search for Another Location

Airport or City:

Trip Planner

Search our weather history database for the weather conditions in past years. The results will help you decide how hot, cold, wet, or windy it might be!

Date:

Astronomy

Jan. 12, 2013 Rise Set
Actual Time 8:04 AM AKST 3:45 PM AKST
Civil Twilight 7:21 AM AKST 4:28 PM AKST
Nautical Twilight 6:34 AM AKST 5:15 PM AKST
Astronomical Twilight 5:51 AM AKST 5:58 PM AKST
Moon 8:08 AM AKST (1/12) 5:46 PM AKST (1/12)
Length of Visible Light 9h 07m
Length of Day
7h 40m
New Moon, 2% of the Moon is Illuminated
Jan 12
New Moon
Jan 18
First Quarter
Jan 26
Full
Feb 3
Last Quarter
Feb 9
New

Hourly Weather History & Observations

Time (AKST) Temp. Windchill Dew Point Humidity Pressure Visibility Wind Dir Wind Speed Gust Speed Precip Events Conditions
12:39 AM 33.8 °F - 30.2 °F 87% 30.30 in 10.0 mi Calm Calm - N/A   Overcast
12:53 AM 33.1 °F - 30.0 °F 89% 30.31 in 10.0 mi Calm Calm - N/A   Overcast
1:53 AM 33.1 °F - 30.0 °F 89% 30.32 in 10.0 mi Calm Calm - N/A   Overcast
3:53 AM 34.0 °F - 30.0 °F 85% 30.34 in 10.0 mi Calm Calm - N/A   Overcast
4:12 AM 35.6 °F 32.8 °F 26.6 °F 70% 30.33 in 10.0 mi North 3.5 mph - N/A   Overcast
4:40 AM 35.6 °F - 28.4 °F 75% 30.34 in 10.0 mi Calm Calm - N/A   Overcast
4:53 AM 34.0 °F - 28.9 °F 82% 30.35 in 10.0 mi Calm Calm - N/A   Overcast
5:07 AM 33.8 °F - 28.4 °F 81% 30.35 in 10.0 mi Calm Calm - N/A   Overcast
5:43 AM 32.0 °F - 28.4 °F 87% 30.36 in 10.0 mi Calm Calm - N/A   Mostly Cloudy
5:53 AM 32.0 °F - 28.9 °F 88% 30.37 in 10.0 mi Calm Calm - N/A   Overcast
6:53 AM 32.0 °F - 28.9 °F 88% 30.39 in 10.0 mi Calm Calm - N/A   Overcast
7:53 AM 32.0 °F - 28.9 °F 88% 30.39 in 10.0 mi Calm Calm - N/A   Overcast
8:53 AM 33.1 °F 30.0 °F 30.0 °F 89% 30.40 in 10.0 mi NE 3.5 mph - N/A   Overcast
9:53 AM 35.1 °F - - N/A% 30.42 in 10.0 mi Calm Calm - N/A   Overcast
10:53 AM 37.0 °F - - N/A% 30.42 in 10.0 mi Calm Calm - N/A   Overcast
11:53 AM 37.9 °F - - N/A% 30.42 in 10.0 mi Calm Calm - N/A   Overcast
12:53 PM 39.0 °F - 30.9 °F 73% 30.42 in 10.0 mi Calm Calm - N/A   Overcast
1:53 PM 39.9 °F - 35.1 °F 83% 30.43 in 10.0 mi Calm Calm - N/A   Overcast
2:02 PM 39.2 °F - - N/A% 30.42 in 10.0 mi Calm Calm - N/A   Overcast
2:34 PM 39.2 °F - 32.0 °F 75% 30.42 in 10.0 mi Calm Calm - N/A   Overcast
2:44 PM 37.4 °F - 32.0 °F 81% 30.42 in 10.0 mi Calm Calm - N/A   Overcast
2:53 PM 37.9 °F - 32.0 °F 79% 30.43 in 10.0 mi Calm Calm - N/A   Overcast
3:43 PM 37.4 °F - 32.0 °F 81% 30.42 in 10.0 mi Calm Calm - N/A   Overcast
4:53 PM 34.0 °F - 30.9 °F 89% 30.44 in 10.0 mi Calm Calm - N/A   Overcast
5:27 PM 33.8 °F - 30.2 °F 87% 30.42 in 10.0 mi Calm Calm - N/A   Overcast
5:53 PM 33.1 °F - 30.9 °F 92% 30.42 in 10.0 mi Calm Calm - N/A   Overcast
6:30 PM 33.8 °F - 30.2 °F 87% 30.42 in 10.0 mi Calm Calm - N/A   Overcast
6:53 PM 34.0 °F - 30.9 °F 89% 30.43 in 10.0 mi Calm Calm - N/A   Overcast
7:53 PM 33.1 °F - 32.0 °F 96% 30.43 in 10.0 mi Calm Calm - N/A   Overcast
8:53 PM 33.1 °F - 30.9 °F 92% 30.43 in 10.0 mi Calm Calm - N/A   Overcast
9:53 PM 34.0 °F - 32.0 °F 92% 30.43 in 10.0 mi Calm Calm - N/A   Overcast
10:53 PM 36.0 °F - 33.1 °F 89% 30.43 in 10.0 mi Calm Calm - N/A   Overcast
11:42 PM 35.6 °F - 33.8 °F 93% 30.41 in 10.0 mi Calm Calm - N/A   Overcast
11:53 PM 37.0 °F 33.3 °F 34.0 °F 89% 30.42 in 10.0 mi SSE 4.6 mph - N/A   Overcast